DEMO9 (AURORA) (48956 NORAD) Tracking and Keplerian Element Data

This shows tracking and keplerian element data for the satellite.

Feedback or suggestion? Click here.




ElementValue
Catalog48956
NameDEMO9 (AURORA)
Epoch Orbit1285
Epoch Day261.76368693
Epoch Year2021
RAAN29.5042
Inclination97.5222
Eccentricity0.0016578
Argument of Perigee323.8529
Mean Anonmoly36.1581
Mean Motion15.13995281
Decay Rate7.61E-06
L11 48956U 21059CF 21261.76368693 .00000761 00000-0 45453-4 0 9998
L22 48956 97.5222 29.5042 0016578 323.8529 36.1581 15.13995281 12856

Live tracking and technical data element details for DEMO9 (AURORA) (NORAD 48956). DEMO9 (AURORA) can be tracked NOW for your location showing map with azimuth and elevation plus other details from your city location.

Track the satellite on the map from your city or location and see movement details for azimuth, elevation, latitude, longitude, range, height, and movement on the map or in text.







IsCatalogInMostPopularTable: catalog: 48956, numindb: 17
Update: records affected: 1



GetName: 48956 DEMO9 (AURORA)

Hit Count: updated at: Fri, 24 Sep 2021 18:55:29 GMT